FW1737 River Denys CA current weather conditions

sailwx.info

Wind from 149

Air temperature 11.7° C
Dewpoint 10.9° C

Last reported at 2020-Jul-06 04:10 UTC.
Time now 2020-Jul-06 05:03 UTC

Location: N 45°52' W 061°15'.
View on Google Maps.

See reports from other nearby stations

  
Tides and Currents Weather Stations Pressure Air Temp Water Temp Dewpoint Dewpoint Depression Visibility Wind Speed Wind Dir Waves Ship Positions
date/time (UTC)wind fromknots sea level pressurealtimeterstation pressurevisibilityair tempwater tempwave heightnotes
2020-Jul-06 04:10 149 11.7
2020-Jul-06 04:05 149 11.7
2020-Jul-06 04:00 149 0 gusting 2 11.7
2020-Jul-06 03:50 149 11.7
2020-Jul-06 03:45 149 0 gusting 3 11.7
2020-Jul-06 03:40 178 11.7
2020-Jul-06 03:35 174 0 gusting 2 11.7
2020-Jul-06 03:30 195 11.7
2020-Jul-06 03:20 161 0 gusting 3 11.7
2020-Jul-06 03:15 184 1 gusting 4 11.7
2020-Jul-06 03:10 159 1 gusting 3 11.7
2020-Jul-06 03:00 223 0 gusting 3 11.7
2020-Jul-06 02:55 207 0 gusting 1 11.7
2020-Jul-06 02:50 207 0 gusting 1 11.7
2020-Jul-06 02:45 207 0 gusting 1 11.7
2020-Jul-06 02:40 207 11.7
2020-Jul-06 02:35 207 11.7
2020-Jul-06 02:25 190 0 gusting 2 11.7
2020-Jul-06 02:20 198 0 gusting 2 11.7
2020-Jul-06 02:15 198 11.7
2020-Jul-06 02:10 198 11.1
2020-Jul-06 02:05 198 1 gusting 2 11.1
2020-Jul-06 02:00 153 1 gusting 2 11.1
2020-Jul-06 01:55 163 0 gusting 1 11.7
2020-Jul-06 01:50 163 0 gusting 1 11.7
2020-Jul-06 01:45 163 0 gusting 1 11.7
2020-Jul-06 01:40 163 11.7
2020-Jul-06 01:35 163 11.7
2020-Jul-06 01:30 163 11.7
2020-Jul-06 01:25 163 11.7
2020-Jul-06 01:20 163 11.7
2020-Jul-06 01:15 163 0 gusting 1 11.7
2020-Jul-06 01:10 163 11.7
2020-Jul-06 01:05 163 11.7
2020-Jul-06 01:00 163 0 gusting 2 11.7
2020-Jul-06 00:55 163 11.7
2020-Jul-06 00:50 163 0 gusting 2 11.7
2020-Jul-06 00:45 163 0 gusting 2 11.7
2020-Jul-06 00:40 163 0 gusting 3 11.7
2020-Jul-06 00:35 162 1 gusting 3 11.7
2020-Jul-06 00:30 178 1 gusting 4 11.7
2020-Jul-06 00:25 155 0 gusting 4 11.7
2020-Jul-06 00:17 155 1 gusting 5 12.2
2020-Jul-06 00:11 164 2 gusting 5 12.2
2020-Jul-06 00:05 207 1 gusting 3 12.2
2020-Jul-06 00:01 202 12.8
2020-Jul-05 23:56 202 0 gusting 6 12.8
2020-Jul-05 23:50 161 2 gusting 6 12.8
2020-Jul-05 23:46 125 2 gusting 4 12.8
2020-Jul-05 23:40 186 0 gusting 4 13.3
2020-Jul-05 23:36 160 2 gusting 6 13.3
2020-Jul-05 23:31 190 3 gusting 7 13.3
2020-Jul-05 23:25 199 2 gusting 7 13.3
2020-Jul-05 23:21 208 4 gusting 7 13.3
2020-Jul-05 23:16 195 2 gusting 6 13.9
2020-Jul-05 23:10 211 4 gusting 7 13.9
2020-Jul-05 23:06 205 4 gusting 8 13.9
2020-Jul-05 23:01 173 5 gusting 8 13.9
2020-Jul-05 22:56 197 3 gusting 6 13.9
2020-Jul-05 22:50 192 3 gusting 7 13.9
2020-Jul-05 22:46 179 4 gusting 7 14.4
2020-Jul-05 22:40 184 4 gusting 7 14.4
2020-Jul-05 22:36 173 3 gusting 7 14.4
2020-Jul-05 22:31 162 3 gusting 7 14.4
2020-Jul-05 22:26 167 3 gusting 7 15.0
2020-Jul-05 22:21 179 3 gusting 10 15.0
2020-Jul-05 22:16 161 4 gusting 10 15.0
2020-Jul-05 22:11 167 2 gusting 7 15.0
2020-Jul-05 22:05 164 4 gusting 7 15.6
2020-Jul-05 22:02 123 3 gusting 9 15.6
2020-Jul-05 21:55 163 5 gusting 9 15.6
2020-Jul-05 21:50 134 3 gusting 8 16.1
2020-Jul-05 21:46 186 4 gusting 7 16.1
2020-Jul-05 21:40 175 5 gusting 10 16.1
2020-Jul-05 21:36 153 4 gusting 8 16.1
2020-Jul-05 21:33 148 5 gusting 9 16.1
2020-Jul-05 21:26 120 4 gusting 9 16.7
2020-Jul-05 21:20 154 6 gusting 9 16.7
2020-Jul-05 21:17 164 3 gusting 7 17.2
2020-Jul-05 21:10 159 2 gusting 8 17.2
2020-Jul-05 21:05 129 3 gusting 8 17.2
2020-Jul-05 21:00 099 5 gusting 8 17.2
2020-Jul-05 20:55 100 3 gusting 9 17.2
2020-Jul-05 20:50 163 4 gusting 9 17.8
2020-Jul-05 20:46 173 2 gusting 8 17.8
2020-Jul-05 20:40 106 5 gusting 8 17.8
2020-Jul-05 20:35 158 2 gusting 8 18.3
2020-Jul-05 20:30 107 5 gusting 8 18.3
2020-Jul-05 20:25 115 3 gusting 8 18.9
2020-Jul-05 20:20 100 3 gusting 8 18.9
2020-Jul-05 20:16 119 1 gusting 9 18.3
2020-Jul-05 20:10 112 2 gusting 10 18.3
2020-Jul-05 20:05 110 3 gusting 10 18.3
2020-Jul-05 20:01 110 5 gusting 9 18.9
2020-Jul-05 19:56 091 3 gusting 7 18.9
2020-Jul-05 19:50 173 3 gusting 8 18.9
2020-Jul-05 19:46 092 5 gusting 10 18.9
2020-Jul-05 19:40 084 5 gusting 10 18.9
2020-Jul-05 19:36 040 2 gusting 9 18.9
2020-Jul-05 19:31 082 4 gusting 8 18.9
2020-Jul-05 19:25 107 5 gusting 11 18.9
2020-Jul-05 19:20 088 5 gusting 9 18.9
2020-Jul-05 19:16 126 5 gusting 10 18.9
2020-Jul-05 19:10 104 2 gusting 10 18.3
2020-Jul-05 19:05 063 1 gusting 9 18.3
2020-Jul-05 19:01 150 5 gusting 9 18.9
2020-Jul-05 18:56 078 4 gusting 7 18.9
2020-Jul-05 18:50 107 5 gusting 9 18.9
2020-Jul-05 18:46 126 3 gusting 9 18.9
2020-Jul-05 18:40 129 3 gusting 10 18.9
2020-Jul-05 18:35 107 5 gusting 10 18.9
2020-Jul-05 18:32 137 1 gusting 7 18.9
2020-Jul-05 18:26 141 4 gusting 8 18.9
2020-Jul-05 18:20 107 4 gusting 9 19.4
2020-Jul-05 18:15 077 5 gusting 9 19.4
2020-Jul-05 18:10 157 1 gusting 7 19.4
2020-Jul-05 18:05 108 4 gusting 7 19.4
2020-Jul-05 18:00 196 3 gusting 7 18.9
2020-Jul-05 17:55 086 4 gusting 10 18.3
2020-Jul-05 17:50 133 3 gusting 10 18.3
2020-Jul-05 17:46 107 3 gusting 9 18.3
2020-Jul-05 17:40 105 4 gusting 9 18.3
2020-Jul-05 17:36 161 5 gusting 8 18.3
2020-Jul-05 17:31 078 3 gusting 10 18.3
2020-Jul-05 17:25 061 6 gusting 10 18.3
2020-Jul-05 17:20 117 4 gusting 9 18.3
2020-Jul-05 17:16 144 1 gusting 11 18.3
2020-Jul-05 17:10 082 6 gusting 11 18.3
2020-Jul-05 17:05 086 6 gusting 7 18.3
2020-Jul-05 17:00 206 4 gusting 9 18.3
2020-Jul-05 16:55 067 4 gusting 10 17.8
2020-Jul-05 16:50 119 5 gusting 10 17.8
2020-Jul-05 16:45 095 4 gusting 10 18.3
2020-Jul-05 16:41 069 2 gusting 7 18.3
2020-Jul-05 16:35 089 2 gusting 6 17.8
2020-Jul-05 16:31 115 3 gusting 9 17.8
2020-Jul-05 16:25 190 2 gusting 10 17.8
2020-Jul-05 16:20 159 5 gusting 11 17.8
2020-Jul-05 16:16 123 6 gusting 11 17.8
2020-Jul-05 16:10 218 5 gusting 9 17.8
2020-Jul-05 16:05 159 5 gusting 7 17.2
2020-Jul-05 16:00 139 1 gusting 9 17.2
2020-Jul-05 15:55 119 5 gusting 8 17.2
2020-Jul-05 15:50 159 4 gusting 7 17.2
2020-Jul-05 15:45 071 2 gusting 7 17.2
2020-Jul-05 15:40 188 4 gusting 7 17.2
2020-Jul-05 15:35 091 3 gusting 8 16.7
2020-Jul-05 15:30 148 3 gusting 8 16.7
2020-Jul-05 15:25 155 2 gusting 8 17.2
2020-Jul-05 15:20 112 6 gusting 8 17.2
2020-Jul-05 15:16 134 4 gusting 10 17.2
2020-Jul-05 15:10 122 5 gusting 10 16.1
2020-Jul-05 15:05 202 0 gusting 8 16.1
2020-Jul-05 15:01 198 6 gusting 8 16.1
2020-Jul-05 14:55 085 3 gusting 7 16.1
2020-Jul-05 14:50 159 5 gusting 10 16.1
2020-Jul-05 14:45 153 4 gusting 10 15.6
2020-Jul-05 14:40 198 3 gusting 7 15.6
2020-Jul-05 14:35 118 2 gusting 7 15.6
2020-Jul-05 14:25 151 3 gusting 6 16.1
2020-Jul-05 14:20 116 1 gusting 6 15.6
2020-Jul-05 14:10 117 2 gusting 7 15.6
2020-Jul-05 14:05 158 2 gusting 7 15.6
2020-Jul-05 14:00 094 3 gusting 7 15.6
2020-Jul-05 13:50 126 3 gusting 6 15.6
2020-Jul-05 13:45 177 2 gusting 6 15.6
2020-Jul-05 13:40 070 0 gusting 6 15.0
2020-Jul-05 13:35 142 1 gusting 6 15.0
2020-Jul-05 13:25 196 0 gusting 5 15.0
2020-Jul-05 13:20 195 0 gusting 5 15.0
2020-Jul-05 13:15 240 14.4
2020-Jul-05 13:10 111 3 gusting 6 14.4
2020-Jul-05 13:05 033 3 gusting 5 14.4
2020-Jul-05 12:56 059 0 gusting 5 13.9
2020-Jul-05 12:51 071 1 gusting 6 13.3
2020-Jul-05 12:46 190 3 gusting 6 13.3
2020-Jul-05 12:41 184 2 gusting 6 13.3
2020-Jul-05 12:35 148 0 gusting 7 13.3
2020-Jul-05 12:31 157 1 gusting 5 13.3
2020-Jul-05 12:25 075 0 gusting 5 12.8
2020-Jul-05 12:20 092 12.8
2020-Jul-05 12:16 071 1 gusting 7 12.8
2020-Jul-05 12:10 093 2 gusting 7 12.8
2020-Jul-05 12:06 090 1 gusting 4 12.8
2020-Jul-05 12:01 070 1 gusting 5 12.2
2020-Jul-05 11:55 033 1 gusting 5 12.2
2020-Jul-05 11:50 044 1 gusting 5 12.2
2020-Jul-05 11:46 140 1 gusting 6 12.2
2020-Jul-05 11:40 082 3 gusting 6 12.2
2020-Jul-05 11:35 061 3 gusting 7 12.2
2020-Jul-05 11:30 083 3 gusting 7 12.2
2020-Jul-05 11:25 071 2 gusting 6 11.7
2020-Jul-05 11:20 088 2 gusting 6 11.7
2020-Jul-05 11:16 053 1 gusting 6 11.7
2020-Jul-05 11:11 077 1 gusting 6 11.7
2020-Jul-05 11:05 020 11.7
2020-Jul-05 11:00 062 1 gusting 3 11.1
2020-Jul-05 10:55 141 11.1
2020-Jul-05 10:50 186 2 gusting 5 11.1
2020-Jul-05 10:46 155 11.1
2020-Jul-05 10:40 145 11.1
2020-Jul-05 10:35 161 0 gusting 2 10.6
2020-Jul-05 10:32 161 10.6
2020-Jul-05 10:25 205 10.6
2020-Jul-05 10:20 206 1 gusting 3 10.6
2020-Jul-05 10:16 207 1 gusting 3 10.6
2020-Jul-05 10:10 205 1 gusting 4 10.6
2020-Jul-05 10:05 205 2 gusting 4 10.6
2020-Jul-05 10:00 219 2 gusting 4 10.6
2020-Jul-05 09:55 199 1 gusting 4 10.0
2020-Jul-05 09:50 211 1 gusting 4 10.0
2020-Jul-05 09:46 202 1 gusting 3 10.0
2020-Jul-05 09:40 232 1 gusting 3 10.0
2020-Jul-05 09:35 212 1 gusting 3 10.0
2020-Jul-05 09:30 206 1 gusting 3 10.0
2020-Jul-05 09:25 213 1 gusting 3 10.0
2020-Jul-05 09:20 217 1 gusting 3 10.0
2020-Jul-05 09:15 205 1 gusting 4 10.0
2020-Jul-05 09:10 209 2 gusting 5 10.0
2020-Jul-05 09:05 193 1 gusting 5 10.0
2020-Jul-05 09:01 213 2 gusting 5 10.0
2020-Jul-05 08:55 193 2 gusting 5 10.0
2020-Jul-05 08:50 227 3 gusting 6 10.0
2020-Jul-05 08:45 211 3 gusting 6 10.0
2020-Jul-05 08:40 209 2 gusting 6 10.0
2020-Jul-05 08:35 213 3 gusting 6 10.0
2020-Jul-05 08:25 234 3 gusting 6 10.6
2020-Jul-05 08:15 200 2 gusting 5 10.6
2020-Jul-05 08:10 224 1 gusting 5 10.6
2020-Jul-05 08:05 206 3 gusting 4 10.6
2020-Jul-05 08:00 171 2 gusting 4 10.6
2020-Jul-05 07:55 185 1 gusting 3 10.6
2020-Jul-05 07:50 203 1 gusting 2 10.6
2020-Jul-05 07:45 197 10.6
2020-Jul-05 07:40 197 0 gusting 1 10.6
2020-Jul-05 07:35 197 10.6
2020-Jul-05 07:30 197 0 gusting 2 10.6
2020-Jul-05 07:25 110 0 gusting 2 10.6
2020-Jul-05 07:20 168 0 gusting 3 10.6
2020-Jul-05 07:10 106 1 gusting 3 10.6
2020-Jul-05 07:05 123 1 gusting 3 11.1
2020-Jul-05 07:00 159 0 gusting 3 11.1
2020-Jul-05 06:55 148 11.1
2020-Jul-05 06:50 148 11.1
2020-Jul-05 06:45 148 11.1
2020-Jul-05 06:40 148 11.1
2020-Jul-05 06:35 148 11.1
2020-Jul-05 06:25 149 11.1
2020-Jul-05 06:20 148 1 gusting 3 10.6
2020-Jul-05 06:11 074 2 gusting 5 11.1
2020-Jul-05 06:06 076 0 gusting 2 11.1
2020-Jul-05 06:02 075 1 gusting 3 11.1
2020-Jul-05 05:50 096 11.1
2020-Jul-05 05:46 096 11.1
2020-Jul-05 05:41 096 1 gusting 4 11.1
2020-Jul-05 05:35 069 1 gusting 5 11.1
2020-Jul-05 05:31 083 1 gusting 3 11.1
2020-Jul-05 05:26 090 0 gusting 3 11.1
2020-Jul-05 05:20 065 11.1
2020-Jul-05 05:17 061 11.1
2020-Jul-05 05:10 061 0 gusting 2 11.1
2020-Jul-05 05:05 081 11.1
2020-Jul-05 05:01 128 0 gusting 2 11.1
2020-Jul-05 04:56 128 11.1
2020-Jul-05 04:50 136 1 gusting 4 11.1
2020-Jul-05 04:46 065 1 gusting 4 11.1
2020-Jul-05 04:40 076 1 gusting 4 11.1
2020-Jul-05 04:36 041 1 gusting 3 11.1
2020-Jul-05 04:31 081 0 gusting 2 11.1
2020-Jul-05 04:26 079 0 gusting 4 11.1
2020-Jul-05 04:20 079 0 gusting 4 11.1
2020-Jul-05 04:16 052 0 gusting 2 11.1
2020-Jul-05 04:10 073 11.1
2020-Jul-05 04:05 048 1 gusting 3 11.1
2020-Jul-05 04:01 063 11.1
2020-Jul-05 03:55 063 2 gusting 4 11.1
2020-Jul-05 03:50 103 0 gusting 2 11.1
2020-Jul-05 03:46 103 11.1
2020-Jul-05 03:40 103 11.1
2020-Jul-05 03:35 103 11.7
2020-Jul-05 03:31 103 0 gusting 5 11.7
2020-Jul-05 03:25 103 2 gusting 5 11.7
2020-Jul-05 03:20 069 1 gusting 3 11.7
2020-Jul-05 03:15 083 1 gusting 3 11.7
2020-Jul-05 03:10 084 0 gusting 2 11.7
2020-Jul-05 03:05 071 0 gusting 4 11.7
2020-Jul-05 03:00 071 1 gusting 4 11.7
2020-Jul-05 02:55 084 0 gusting 6 11.7
2020-Jul-05 02:50 132 1 gusting 5 11.7
2020-Jul-05 02:46 101 2 gusting 5 11.7
2020-Jul-05 02:40 111 0 gusting 5 11.7
2020-Jul-05 02:35 134 1 gusting 6 11.7
2020-Jul-05 02:31 113 1 gusting 5 11.7
2020-Jul-05 02:25 101 2 gusting 5 11.7
2020-Jul-05 02:20 073 2 gusting 4 11.7
2020-Jul-05 02:15 124 1 gusting 6 11.7
2020-Jul-05 02:10 119 1 gusting 5 12.2
2020-Jul-05 02:05 113 1 gusting 3 12.2
2020-Jul-05 02:01 094 0 gusting 5 12.2
2020-Jul-05 01:55 107 2 gusting 5 12.2
2020-Jul-05 01:50 113 0 gusting 6 12.2
2020-Jul-05 01:46 128 1 gusting 5 12.2
2020-Jul-05 01:40 100 1 gusting 6 12.2
2020-Jul-05 01:35 139 1 gusting 7 12.2
2020-Jul-05 01:31 143 1 gusting 7 12.2
2020-Jul-05 01:25 113 2 gusting 7 12.2
2020-Jul-05 01:20 086 0 gusting 5 12.2
2020-Jul-05 01:05 111 1 gusting 5 12.8
2020-Jul-05 01:01 119 2 gusting 5 12.8
2020-Jul-05 00:50 093 0 gusting 3 12.8
2020-Jul-05 00:45 118 0 gusting 3 12.8
2020-Jul-05 00:40 131 12.8
2020-Jul-05 00:35 121 0 gusting 3 12.8
2020-Jul-05 00:31 089 0 gusting 3 12.8
2020-Jul-05 00:20 118 1 gusting 5 12.8
2020-Jul-05 00:15 157 1 gusting 3 12.8
2020-Jul-05 00:10 155 0 gusting 4 12.8
2020-Jul-05 00:05 113 1 gusting 5 12.8
2020-Jul-05 00:00 135 0 gusting 6 12.8
2020-Jul-04 23:55 146 2 gusting 6 12.8
2020-Jul-04 23:51 164 2 gusting 4 13.3
2020-Jul-04 23:45 106 1 gusting 9 13.3
2020-Jul-04 23:40 134 2 gusting 9 13.3
2020-Jul-04 23:35 111 4 gusting 8 13.3
2020-Jul-04 23:30 081 4 gusting 7 13.3
2020-Jul-04 23:25 092 3 gusting 7 13.3
2020-Jul-04 23:20 090 3 gusting 6 13.3
2020-Jul-04 23:15 082 1 gusting 6 13.3
2020-Jul-04 23:10 077 2 gusting 6 13.3
2020-Jul-04 23:05 101 2 gusting 7 13.9
2020-Jul-04 23:00 101 4 gusting 7 13.9
2020-Jul-04 22:55 116 3 gusting 6 13.9
2020-Jul-04 22:50 072 3 gusting 6 13.9
2020-Jul-04 22:45 104 2 gusting 6 13.9
2020-Jul-04 22:40 080 1 gusting 5 13.9
2020-Jul-04 22:35 076 1 gusting 6 13.9
2020-Jul-04 22:30 107 1 gusting 6 13.9
2020-Jul-04 22:25 115 1 gusting 6 13.9
2020-Jul-04 22:20 119 3 gusting 6 14.4
2020-Jul-04 22:15 143 1 gusting 4 14.4
2020-Jul-04 22:10 123 1 gusting 5 14.4
2020-Jul-04 22:06 143 0 gusting 6 14.4
2020-Jul-04 22:01 133 2 gusting 6 14.4
2020-Jul-04 21:55 155 1 gusting 6 14.4
2020-Jul-04 21:50 128 14.4
2020-Jul-04 21:46 147 2 gusting 5 14.4
2020-Jul-04 21:40 160 2 gusting 4 14.4
2020-Jul-04 21:35 173 0 gusting 6 14.4
2020-Jul-04 21:31 101 1 gusting 6 14.4
2020-Jul-04 21:25 134 2 gusting 9 14.4
2020-Jul-04 21:20 111 5 gusting 9 14.4
2020-Jul-04 21:15 109 5 gusting 8 15.0
2020-Jul-04 21:10 063 2 gusting 6 15.0
2020-Jul-04 21:05 056 3 gusting 6 15.0
2020-Jul-04 21:01 122 2 gusting 6 15.0
2020-Jul-04 20:55 159 1 gusting 6 15.0
2020-Jul-04 20:50 100 2 gusting 7 15.0
2020-Jul-04 20:46 146 3 gusting 8 15.0
2020-Jul-04 20:40 096 5 gusting 9 15.6
2020-Jul-04 20:35 101 3 gusting 9 15.6
2020-Jul-04 20:31 088 1 gusting 6 15.6
2020-Jul-04 20:25 185 3 gusting 6 15.6
2020-Jul-04 20:20 180 2 gusting 6 15.0
2020-Jul-04 20:15 115 2 gusting 7 15.0
2020-Jul-04 20:10 158 4 gusting 7 15.0
2020-Jul-04 20:05 148 3 gusting 7 15.6
2020-Jul-04 20:00 120 4 gusting 7 15.6
2020-Jul-04 19:55 135 2 gusting 10 15.6
2020-Jul-04 19:50 159 5 gusting 10 15.6
2020-Jul-04 19:45 126 5 gusting 8 15.6
2020-Jul-04 19:40 143 4 gusting 8 15.6
2020-Jul-04 19:35 113 2 gusting 9 15.6
2020-Jul-04 19:30 105 5 gusting 9 15.6
2020-Jul-04 19:25 081 1 gusting 9 16.1
2020-Jul-04 19:20 103 0 gusting 7 16.1
2020-Jul-04 19:15 104 3 gusting 7 16.1
2020-Jul-04 19:10 123 2 gusting 7 16.1
2020-Jul-04 19:00 121 4 gusting 9 16.1
2020-Jul-04 18:55 107 3 gusting 9 16.1
2020-Jul-04 18:50 101 5 gusting 9 16.1
2020-Jul-04 18:45 105 2 gusting 9 16.1
2020-Jul-04 18:40 122 3 gusting 9 16.1
2020-Jul-04 18:35 088 3 gusting 6 16.1
2020-Jul-04 18:32 136 2 gusting 6 16.1
2020-Jul-04 18:25 127 2 gusting 6 16.1
2020-Jul-04 18:20 155 1 gusting 7 16.1
2020-Jul-04 18:16 150 4 gusting 7 16.7
2020-Jul-04 18:10 096 2 gusting 6 16.7
2020-Jul-04 18:05 130 4 gusting 7 16.7
2020-Jul-04 18:00 148 3 gusting 8 16.7
2020-Jul-04 17:55 120 3 gusting 8 16.7
2020-Jul-04 17:50 115 4 gusting 7 16.7
2020-Jul-04 17:45 107 2 gusting 9 16.1
2020-Jul-04 17:40 123 5 gusting 9 16.1
2020-Jul-04 17:35 165 1 gusting 10 16.1
2020-Jul-04 17:30 140 6 gusting 11 16.1
2020-Jul-04 17:25 098 5 gusting 11 16.1
2020-Jul-04 17:20 099 2 gusting 7 16.1
2020-Jul-04 17:16 067 2 gusting 9 16.1
2020-Jul-04 17:10 157 6 gusting 8 16.1
2020-Jul-04 17:05 103 4 gusting 8 16.1
2020-Jul-04 17:00 105 4 gusting 9 16.1
2020-Jul-04 16:55 140 4 gusting 10 16.1
2020-Jul-04 16:50 111 6 gusting 11 16.1
2020-Jul-04 16:40 105 4 gusting 12 16.7
2020-Jul-04 16:35 134 6 gusting 12 16.7
2020-Jul-04 16:30 139 6 gusting 13 16.7
2020-Jul-04 16:25 096 6 gusting 12 16.7
2020-Jul-04 16:20 069 5 gusting 13 16.7
2020-Jul-04 16:16 105 7 gusting 13 16.7
2020-Jul-04 16:10 157 4 gusting 11 16.7
2020-Jul-04 16:05 105 6 gusting 11 16.7
2020-Jul-04 15:55 086 6 gusting 11 16.7
2020-Jul-04 15:45 103 5 gusting 10 16.7
2020-Jul-04 15:40 084 5 gusting 13 16.1
2020-Jul-04 15:35 111 5 gusting 13 16.1
2020-Jul-04 15:30 118 3 gusting 9 15.6
2020-Jul-04 15:20 155 3 gusting 9 16.1
2020-Jul-04 15:15 080 6 gusting 9 16.1
2020-Jul-04 15:10 195 2 gusting 9 15.6
2020-Jul-04 15:05 187 5 gusting 8 15.6
2020-Jul-04 15:00 145 3 gusting 9 15.6
2020-Jul-04 14:50 125 4 gusting 10 15.6
2020-Jul-04 14:47 080 6 gusting 10 16.1
2020-Jul-04 14:41 158 5 gusting 8 15.6
2020-Jul-04 14:36 165 2 gusting 8 15.6
2020-Jul-04 14:32 139 6 gusting 8 15.0
2020-Jul-04 14:25 141 4 gusting 8 15.6
2020-Jul-04 14:21 070 2 gusting 10 15.0
2020-Jul-04 14:17 059 5 gusting 10 15.0
2020-Jul-04 14:11 078 6 gusting 9 15.6
2020-Jul-04 14:05 108 2 gusting 7 15.0
2020-Jul-04 14:01 065 4 gusting 7 15.0
2020-Jul-04 13:55 073 5 gusting 7 15.0
2020-Jul-04 13:51 063 3 gusting 7 15.0
2020-Jul-04 13:46 067 4 gusting 7 15.0
2020-Jul-04 13:40 076 3 gusting 7 15.0
2020-Jul-04 13:36 072 2 gusting 10 15.0
2020-Jul-04 13:31 080 5 gusting 10 15.0
2020-Jul-04 13:25 057 5 gusting 9 14.4
2020-Jul-04 13:20 115 5 gusting 9 14.4
2020-Jul-04 13:17 125 5 gusting 8 14.4
2020-Jul-04 13:10 138 3 gusting 7 14.4
2020-Jul-04 13:06 088 2 gusting 6 14.4
2020-Jul-04 13:01 067 4 gusting 6 14.4
2020-Jul-04 12:55 109 2 gusting 8 13.9
2020-Jul-04 12:50 106 4 gusting 8 13.9
2020-Jul-04 12:46 138 4 gusting 11 13.9
2020-Jul-04 12:41 090 6 gusting 11 14.4
2020-Jul-04 12:35 079 2 gusting 6 14.4
2020-Jul-04 12:30 117 3 gusting 8 13.9
2020-Jul-04 12:25 083 3 gusting 10 13.9
2020-Jul-04 12:20 066 5 gusting 7 13.9
2020-Jul-04 12:17 075 3 gusting 6 13.9
2020-Jul-04 12:10 092 1 gusting 6 13.9
2020-Jul-04 12:05 107 3 gusting 6 13.3
2020-Jul-04 12:00 119 3 gusting 6 13.3
2020-Jul-04 11:55 092 2 gusting 6 13.3
2020-Jul-04 11:50 142 1 gusting 7 13.3
2020-Jul-04 11:45 086 4 gusting 7 13.3
2020-Jul-04 11:40 074 4 gusting 7 13.3
2020-Jul-04 11:36 117 2 gusting 6 13.3
2020-Jul-04 11:31 130 2 gusting 6 13.3
2020-Jul-04 11:25 113 4 gusting 7 13.3
2020-Jul-04 11:20 080 4 gusting 7 13.3
2020-Jul-04 11:15 102 1 gusting 6 13.3
2020-Jul-04 11:11 088 2 gusting 8 12.8
2020-Jul-04 11:06 105 4 gusting 8 12.8
2020-Jul-04 11:02 123 4 gusting 7 12.8
2020-Jul-04 10:55 069 3 gusting 6 12.8
2020-Jul-04 10:50 130 1 gusting 5 12.8
2020-Jul-04 10:46 080 1 gusting 5 12.2
2020-Jul-04 10:40 092 1 gusting 4 12.2
2020-Jul-04 10:35 123 1 gusting 5 12.2
2020-Jul-04 10:30 055 0 gusting 5 12.2
2020-Jul-04 10:25 078 0 gusting 5 12.2
2020-Jul-04 10:20 064 2 gusting 5 12.2
2020-Jul-04 10:16 053 1 gusting 3 12.2
2020-Jul-04 10:10 038 0 gusting 3 11.7
2020-Jul-04 10:05 081 1 gusting 5 11.7
2020-Jul-04 10:01 094 1 gusting 6 11.7
2020-Jul-04 09:55 137 1 gusting 6 11.7
2020-Jul-04 09:50 102 3 gusting 6 11.7
2020-Jul-04 09:45 092 1 gusting 3 11.7
2020-Jul-04 09:40 089 0 gusting 2 11.7
2020-Jul-04 09:35 090 1 gusting 2 11.7
2020-Jul-04 09:30 089 11.7
2020-Jul-04 09:25 089 0 gusting 2 11.7
2020-Jul-04 09:20 084 1 gusting 3 11.7
2020-Jul-04 09:15 066 1 gusting 3 11.7
2020-Jul-04 09:10 080 0 gusting 2 11.7
2020-Jul-04 09:05 074 0 gusting 3 11.7
2020-Jul-04 09:00 077 1 gusting 3 11.7
2020-Jul-04 08:55 110 0 gusting 2 11.7
2020-Jul-04 08:50 110 0 gusting 2 11.7
2020-Jul-04 08:45 110 0 gusting 1 11.7
2020-Jul-04 08:40 110 11.7
2020-Jul-04 08:35 110 11.7
2020-Jul-04 08:31 137 2 gusting 5 11.7
2020-Jul-04 08:25 131 0 gusting 6 11.7
2020-Jul-04 08:20 163 2 gusting 5 11.7
2020-Jul-04 08:10 107 2 gusting 3 11.7
2020-Jul-04 08:00 105 3 gusting 6 11.7
2020-Jul-04 07:55 125 0 gusting 4 11.7
2020-Jul-04 07:50 121 2 gusting 4 11.7
2020-Jul-04 07:40 138 12.2
2020-Jul-04 07:30 144 12.2
2020-Jul-04 07:25 144 12.2
2020-Jul-04 07:20 146 0 gusting 3 12.2
2020-Jul-04 07:15 135 1 gusting 3 12.2
2020-Jul-04 07:10 113 1 gusting 5 12.2
2020-Jul-04 07:05 116 2 gusting 5 12.2
2020-Jul-04 06:55 099 1 gusting 5 12.2
2020-Jul-04 06:45 128 1 gusting 6 12.2
2020-Jul-04 06:40 078 0 gusting 3 12.2
2020-Jul-04 06:35 127 1 gusting 4 12.2
2020-Jul-04 06:30 167 2 gusting 6 12.2
2020-Jul-04 06:25 075 1 gusting 5 12.2
2020-Jul-04 06:21 120 0 gusting 6 12.2
2020-Jul-04 06:15 163 1 gusting 6 12.2
2020-Jul-04 06:10 107 2 gusting 6 12.2
2020-Jul-04 06:05 149 1 gusting 7 12.2
2020-Jul-04 06:00 075 1 gusting 7 12.2
2020-Jul-04 05:51 140 0 gusting 4 12.2
2020-Jul-04 05:46 142 1 gusting 5 12.2
2020-Jul-04 05:41 170 2 gusting 5 12.2
2020-Jul-04 05:36 164 1 gusting 4 12.2
2020-Jul-04 05:31 098 1 gusting 3 12.2
2020-Jul-04 05:26 135 0 gusting 3 12.2
2020-Jul-04 05:20 154 1 gusting 5 12.2
2020-Jul-04 05:16 165 1 gusting 5 12.2
2020-Jul-04 05:11 143 1 gusting 6 12.8
2020-Jul-04 05:06 140 2 gusting 6 12.8
2020-Jul-04 05:01 138 2 gusting 6 12.8